Vorticity
-1 -1 0 2 3 4 5 5 5 5 5 4 4 4 3 3 3 3 3 3 3 3 3 4 4 3 2 2 1 1 1 1 1 1 2 3 3 4 5 6 6 6 5 4 4 4 4 3 4 5 5 5 5 6 6 6 6 6 5 5 5 5 5 5 5 5 5 5 5 5 6 6 7 8 7 8 7 7 8 9 9 8 8 9 9 8 8 8
-0 -0 -1 -1 -1 -0 1 2 2 3 3 3 4 4 3 3 3 3 3 2 3 3 3 3 4 4 3 3 2 1 1 1 1 1 2 2 2 3 3 4 6 6 5 4 3 4 4 4 3 4 5 5 4 5 5 6 6 6 6 5 6 6 5 5 5 5 5 5 5 4 4 4 4 5 4 5 4 4 5 5 5 6 8 9 9 9 9 9
1 1 1 -0 -0 -1 -1 -0 0 0 1 1 1 2 3 3 2 2 3 2 2 2 2 3 3 3 3 3 3 2 1 1 1 1 1 2 2 2 2 3 4 5 5 4 3 3 4 5 4 3 4 5 5 5 5 6 5 6 6 6 6 6 5 5 6 5 4 5 6 6 6 5 5 4 4 4 3 3 4 4 5 6 6 6 7 7 7 8
3 2 2 1 1 1 1 0 0 0 0 1 1 1 1 2 2 2 2 2 2 2 2 3 2 3 3 3 3 3 2 1 1 1 2 2 1 1 2 2 2 3 4 5 4 3 3 4 4 3 3 2 4 5 5 5 5 6 6 6 7 6 6 6 6 6 5 4 5 5 6 7 7 6 6 6 5 5 5 6 6 5 6 6 6 6 7 7
4 4 3 2 2 2 2 2 2 2 1 1 1 1 1 1 2 2 2 2 2 2 2 2 2 2 3 3 3 3 3 2 2 2 2 1 -0 1 2 1 2 2 2 3 4 4 4 4 3 4 3 2 3 4 4 5 5 5 5 5 6 6 6 7 7 7 7 6 5 4 4 5 6 5 5 5 5 5 5 5 4 4 4 5 5 5 6 6
6 5 5 4 4 3 2 2 2 2 2 2 2 2 2 2 2 2 2 2 2 3 3 2 2 3 3 3 3 3 3 2 2 2 2 1 0 2 2 1 2 2 2 2 3 3 3 4 3 4 4 3 3 2 3 5 4 4 4 4 5 6 6 7 7 7 7 7 7 6 5 5 5 5 4 4 3 3 3 3 2 3 3 3 3 3 4 4
8 7 7 6 6 5 4 3 3 2 2 3 3 3 3 3 3 3 3 3 3 3 3 3 3 3 3 3 3 3 3 2 2 2 1 1 2 2 1 1 1 1 2 2 2 2 2 3 3 3 4 4 4 3 3 4 4 4 3 3 4 4 5 6 6 6 7 7 7 7 7 7 6 6 5 5 4 4 4 4 4 3 3 4 4 4 4 4
11 10 9 8 7 7 6 6 6 4 3 2 2 3 4 4 3 3 4 3 3 3 3 3 3 3 3 3 3 3 3 3 3 3 3 2 2 2 1 2 2 1 1 2 2 1 2 2 2 2 2 3 4 4 4 3 3 4 4 4 4 3 4 5 5 5 5 6 6 6 6 7 7 7 6 7 7 6 6 6 5 5 5 5 5 6 5 4
9 10 11 10 9 8 7 7 7 7 6 5 3 3 3 4 4 3 4 4 4 4 3 4 4 4 4 4 3 4 4 4 3 3 3 3 3 2 1 1 1 1 1 1 2 2 2 2 2 2 2 3 3 3 4 3 3 4 4 4 3 3 4 4 4 4 5 5 5 5 5 6 8 7 5 7 7 6 6 6 6 6 7 7 7 7 6 6
8 9 9 10 10 10 9 7 7 7 7 7 6 5 4 4 4 4 4 4 4 4 4 4 4 4 4 4 4 4 3 4 4 4 4 3 3 3 3 3 1 2 1 2 3 2 2 1 2 3 2 2 2 2 3 2 4 3 3 4 5 4 4 5 4 3 4 4 4 5 4 5 9 7 5 7 6 4 5 5 5 6 6 6 6 6 7 8
6 7 8 9 9 9 10 9 9 8 7 7 7 6 6 6 6 6 5 4 4 4 4 4 4 5 4 5 5 4 4 4 4 4 4 4 4 4 4 3 2 2 2 3 3 3 3 2 2 3 2 2 3 3 3 3 3 2 3 3 4 4 4 6 5 4 4 3 5 5 4 7 9 7 4 4 4 3 4 4 4 5 5 5 4 4 6 8
5 6 6 7 8 9 9 9 9 9 9 8 7 7 7 6 6 7 6 6 5 5 5 5 4 4 5 6 5 4 4 4 4 4 4 4 4 4 4 4 4 3 3 3 3 4 3 3 3 4 3 3 2 3 3 3 3 2 3 2 3 4 4 5 6 6 5 3 5 4 8 10 6 3 3 3 3 3 3 3 4 4 4 4 3 3 3 5
6 6 6 7 7 7 8 9 9 9 9 9 8 7 6 6 6 6 6 6 6 5 5 5 5 5 5 5 6 5 5 5 5 4 4 4 4 4 4 4 4 4 4 4 4 4 4 4 4 4 4 3 3 4 4 4 4 3 3 2 3 3 3 3 5 7 7 5 3 4 10 8 -0 -1 1 2 3 4 4 4 4 4 4 4 3 3 3 4
5 5 6 7 8 8 8 8 8 8 9 9 9 9 8 7 6 5 5 5 5 5 6 5 5 5 5 5 6 6 6 5 5 5 5 4 4 4 4 3 4 4 4 4 4 4 4 5 5 5 4 4 4 5 5 5 5 4 4 3 3 4 3 3 3 5 7 6 4 4 6 2 -1 3 2 2 4 4 6 6 6 5 4 4 3 3 4 4
6 5 5 5 6 7 8 8 8 8 8 8 8 9 9 9 8 7 6 6 5 5 5 5 5 5 4 5 5 5 6 6 7 6 6 5 5 5 5 4 4 4 4 4 4 4 4 5 6 5 5 5 6 7 6 5 4 4 5 4 3 4 4 3 3 3 5 7 4 4 5 -1 -1 3 2 4 5 5 6 6 6 7 6 5 3 4 6 5
5 5 5 5 4 5 6 7 8 8 8 8 8 8 8 9 9 9 9 8 7 6 6 5 5 5 4 5 5 5 5 6 6 7 7 7 7 6 6 5 5 5 5 5 4 4 6 6 6 6 5 6 6 7 7 4 4 5 5 5 5 4 4 4 4 2 3 5 4 4 4 -0 -2 2 3 4 4 4 5 5 6 7 7 5 4 6 8 6
4 4 5 5 5 4 4 4 5 7 8 8 7 7 8 8 8 8 9 9 8 8 7 6 6 6 6 6 5 5 5 5 6 6 7 7 7 7 6 6 6 5 5 6 5 6 6 6 6 6 5 6 8 8 5 3 4 5 4 4 4 4 4 5 5 4 3 3 4 4 3 1 1 2 3 3 3 2 4 6 7 6 6 6 6 8 8 6
4 4 5 5 5 6 5 4 3 4 5 7 7 7 6 7 8 8 8 8 9 9 8 8 8 7 8 8 6 7 7 6 6 6 7 7 7 7 7 7 7 7 7 6 6 6 5 4 4 4 5 7 7 4 2 4 5 5 4 4 4 4 4 6 6 5 5 4 4 4 3 4 3 2 3 4 3 2 4 6 7 7 8 7 6 8 8 7
3 3 4 4 4 5 6 6 5 4 3 3 4 6 7 6 6 7 7 7 7 7 8 8 8 7 8 7 6 7 6 6 7 7 7 7 7 8 8 8 8 8 8 7 8 6 5 4 4 4 6 6 2 0 3 5 5 5 4 4 4 4 4 6 6 5 6 5 4 4 5 5 3 2 2 4 2 1 4 7 8 9 8 7 7 8 9 8
4 3 3 3 4 4 4 5 6 6 5 4 3 3 4 5 5 6 6 6 7 7 7 7 7 7 7 6 6 6 7 7 7 7 7 7 8 7 8 8 9 9 9 9 8 6 6 5 5 6 6 3 0 2 5 5 4 4 4 5 5 5 5 6 5 5 5 5 4 4 5 4 3 2 3 6 4 2 4 7 9 9 8 7 8 9 9 9
7 6 5 4 3 3 4 5 6 6 6 6 6 4 3 3 4 4 5 5 6 6 6 6 6 6 7 7 7 7 8 9 8 8 8 8 8 8 8 8 8 8 9 9 6 7 8 7 8 9 7 4 4 6 5 5 5 4 4 6 5 5 6 5 5 6 5 6 5 4 5 5 3 2 3 6 8 6 5 7 9 8 10 10 9 10 10 8
6 6 6 6 5 4 3 4 6 7 7 6 6 7 6 4 2 3 3 4 5 5 5 6 5 6 6 6 7 8 9 9 10 10 10 10 10 10 10 10 10 10 9 8 7 8 8 7 9 9 6 6 7 7 6 6 6 6 7 7 6 7 7 6 6 6 5 5 5 5 6 6 4 3 4 6 9 8 6 7 10 11 11 10 10 12 11 9
6 6 6 5 5 5 4 4 5 6 9 9 8 6 6 6 6 4 2 1 3 4 4 4 4 5 6 6 6 7 6 7 8 9 9 10 10 11 11 11 11 11 11 11 11 10 9 10 11 9 9 10 9 8 8 8 7 7 6 6 7 7 7 7 5 5 5 5 6 6 7 8 5 5 7 7 6 7 6 8 12 12 9 9 14 17 14 10
6 6 6 5 4 4 4 4 5 6 9 11 12 10 8 7 6 6 6 4 2 2 3 3 3 3 4 3 4 4 4 5 6 6 6 6 7 8 9 10 10 9 11 11 10 9 9 11 11 10 10 9 8 8 8 8 8 7 7 8 8 6 7 7 5 6 6 6 7 5 8 10 7 7 9 6 6 8 8 9 11 11 9 13 19 18 11 7
7 7 7 6 4 4 4 3 3 4 6 8 12 14 14 12 9 6 6 5 3 2 3 2 3 3 3 3 3 3 3 3 5 5 4 4 3 3 3 3 3 4 5 5 6 7 8 10 10 10 11 10 10 10 10 10 9 8 8 8 7 7 7 6 6 7 6 7 6 4 8 10 6 7 6 4 6 7 7 7 7 8 10 16 20 14 7 6
8 9 9 8 6 5 4 3 3 3 3 4 6 9 12 15 16 12 10 9 7 5 4 3 3 2 3 4 5 4 2 2 4 3 2 2 1 1 1 1 2 3 4 5 5 6 7 8 8 8 8 8 8 9 9 9 7 7 8 8 8 7 6 6 6 6 4 5 4 3 5 4 5 6 2 2 4 3 6 9 8 6 9 17 19 10 5 8
8 9 10 10 9 7 6 5 4 3 3 4 4 5 7 9 13 15 17 17 14 10 8 4 3 4 5 5 4 4 3 3 5 5 5 7 6 6 5 6 6 5 5 4 3 4 6 5 5 5 6 6 6 7 7 6 6 6 6 6 6 5 6 6 5 4 4 4 4 6 4 3 8 3 -3 2 5 5 9 12 11 5 6 18 16 4 5 9
9 8 8 10 10 9 9 7 6 6 5 5 4 5 5 5 7 8 11 14 14 14 14 12 9 7 6 6 6 7 6 7 8 8 8 7 7 7 7 7 6 5 5 4 4 5 5 4 5 5 6 6 6 6 7 6 6 6 6 6 7 7 6 5 5 5 4 2 4 7 4 6 8 -1 -1 9 9 9 9 9 12 10 11 16 8 2 7 8
9 8 7 7 8 9 9 7 7 7 6 6 5 4 5 5 5 5 6 7 6 8 12 15 14 11 8 7 7 6 6 7 6 5 7 7 7 8 9 9 9 9 9 7 7 7 7 8 9 8 8 9 8 8 7 7 6 6 6 7 6 6 5 4 5 3 3 5 4 4 3 7 12 9 12 14 7 7 9 9 14 16 15 11 2 4 8 9
9 10 9 8 7 7 7 7 8 7 6 6 5 5 5 4 4 5 4 3 3 3 5 8 11 15 17 15 12 10 8 7 7 7 8 8 9 9 9 9 9 9 9 9 10 10 10 10 9 10 10 9 8 7 7 7 8 7 7 6 5 5 4 3 4 3 3 3 1 2 2 6 15 12 6 6 5 7 9 9 12 15 15 8 1 5 10 12
6 7 8 10 10 8 8 7 6 7 7 6 6 6 5 5 5 4 4 6 7 5 5 6 8 12 16 18 18 17 13 9 8 9 9 8 7 6 6 7 7 8 7 6 8 10 10 10 10 10 9 8 9 9 9 7 6 5 5 5 3 3 3 3 3 3 1 -1 1 5 5 9 14 4 -4 1 6 6 8 9 12 16 14 5 2 9 16 14
5 5 5 7 7 8 9 8 8 8 6 6 7 6 6 6 4 1 2 4 4 3 4 4 5 8 9 12 14 15 18 16 10 8 9 9 7 4 5 6 5 5 5 6 9 9 7 6 6 6 5 7 8 8 6 6 6 6 5 5 4 4 5 3 1 2 1 3 7 7 7 11 11 3 2 5 4 7 12 11 10 11 7 3 8 17 17 11
3 2 4 6 6 6 6 6 8 7 7 8 6 5 7 4 2 5 6 3 0 1 3 2 3 4 5 7 9 10 14 17 16 12 7 5 6 5 4 4 4 6 8 9 8 6 6 5 4 6 8 7 6 7 7 7 7 5 4 4 3 3 4 2 2 6 7 8 9 7 7 8 4 2 4 4 4 9 9 5 4 5 7 11 16 16 13 9
4 3 5 6 8 8 5 5 6 5 7 7 5 8 4 -2 4 12 13 11 8 6 6 4 3 4 5 6 6 7 10 13 16 16 12 8 6 6 6 6 6 7 8 8 6 5 7 5 1 3 6 4 3 4 5 5 4 2 3 3 2 5 8 7 7 9 10 9 6 4 4 2 -1 -1 1 2 4 5 3 3 4 5 12 16 13 12 13 12
4 3 5 8 9 8 6 4 4 6 6 4 7 5 -7 -7 6 9 10 14 11 8 7 5 4 5 4 3 3 3 6 8 11 15 16 13 8 7 6 5 5 6 5 5 6 6 7 8 3 -0 3 4 3 3 4 5 5 4 4 3 3 7 8 8 9 9 9 9 6 4 3 1 1 1 2 2 2 3 7 9 8 9 15 11 6 11 16 13
8 6 5 6 9 8 4 2 4 6 3 4 5 -8 -16 -1 10 5 7 12 10 8 7 4 5 6 5 4 5 3 4 7 8 10 14 15 14 11 8 6 6 7 7 8 8 5 6 9 4 -2 1 3 3 6 6 4 4 5 3 2 6 8 6 5 7 6 5 5 4 4 2 -1 2 5 3 4 5 10 15 15 13 14 14 7 2 9 14 13
10 10 8 6 8 7 4 3 5 5 4 5 -1 -13 -6 10 11 4 4 5 5 7 8 5 4 6 8 7 5 1 1 4 3 5 9 12 13 12 10 8 6 6 8 10 8 4 4 7 5 2 4 7 8 9 6 4 4 4 3 4 7 7 4 2 4 4 3 1 -1 0 1 -1 3 5 3 7 11 12 15 18 18 16 15 11 4 7 13 13
12 10 7 7 9 12 11 8 8 11 11 9 1 -4 4 10 7 9 10 8 7 8 12 14 10 9 9 8 7 3 1 3 5 5 5 6 8 9 8 8 8 6 5 5 4 4 8 11 11 9 8 8 8 4 1 2 3 2 3 7 7 5 2 1 1 1 3 2 -2 -2 5 8 8 8 8 12 14 14 17 21 20 15 14 10 2 5 13 12
10 10 9 7 8 14 16 13 13 15 11 7 5 4 4 5 4 6 7 10 14 13 14 14 10 9 9 8 9 9 10 14 15 13 9 7 8 7 5 7 6 4 2 2 4 8 10 9 8 9 8 6 4 2 3 6 6 6 6 6 3 1 2 3 1 0 4 5 1 4 15 16 10 9 13 14 16 19 20 18 16 12 11 9 5 7 10 7
12 15 16 14 10 10 10 8 8 8 4 3 6 4 3 7 8 5 1 2 7 10 10 9 7 6 6 9 11 10 10 8 5 6 7 9 12 12 10 9 7 7 6 3 3 5 5 4 5 7 5 4 6 8 11 9 6 4 1 1 3 4 5 3 1 6 12 10 5 12 21 15 5 8 14 15 18 19 12 8 12 13 12 11 7 8 9 5
9 11 14 17 15 11 11 15 16 16 12 7 6 5 8 11 9 6 4 0 0 5 9 10 11 9 7 8 7 5 4 2 1 1 -1 2 9 12 16 19 19 18 16 12 10 7 6 6 5 6 6 8 9 7 6 3 1 2 3 4 8 9 8 4 1 8 19 17 10 13 13 5 4 10 16 17 14 7 1 6 14 11 7 5 3 7 8 2
-8 -4 1 6 7 3 3 5 5 5 5 5 6 9 11 10 6 6 6 3 1 0 1 3 2 2 2 0 1 2 2 4 7 9 10 10 6 3 4 5 3 2 6 13 16 15 14 11 7 7 6 4 6 10 13 14 12 12 12 13 16 18 20 19 11 10 15 12 7 8 2 -4 2 10 16 13 1 -3 6 16 14 4 1 2 2 7 7 0
-4 -4 -2 1 4 6 7 4 -0 -5 -5 1 5 7 8 7 6 7 4 2 2 1 -1 -1 -4 -6 -3 -1 0 0 -0 1 1 4 11 12 7 5 7 6 5 9 13 13 12 15 18 15 11 12 10 9 12 14 15 17 17 17 16 17 18 17 19 20 14 10 7 1 5 10 -3 -8 3 10 11 3 -7 5 21 16 3 -3 0 5 5 9 11 6
3 -0 -0 1 3 9 13 14 15 14 11 10 4 -0 1 5 6 9 7 2 2 5 5 5 2 -0 1 3 4 6 9 11 10 9 11 14 15 15 15 16 17 17 14 8 5 8 10 10 11 12 12 12 7 1 2 7 11 11 11 10 7 4 5 6 4 4 1 -1 10 12 -4 -3 13 14 9 4 8 24 23 2 -5 -0 5 8 7 10 14 11
4 1 1 0 -2 -1 -1 -4 -4 2 11 19 21 17 12 10 4 2 7 7 3 2 4 6 8 7 6 5 8 12 13 13 17 18 16 13 12 8 4 5 5 3 2 1 1 5 8 11 11 9 6 -1 -10 -9 -0 3 2 -1 -2 -2 -3 -4 -2 -1 -1 2 3 4 11 8 -3 4 17 16 14 16 22 22 6 -5 2 8 8 10 9 11 13 12
6 4 2 1 -0 -0 1 -3 -9 -9 -8 -4 10 21 21 26 28 18 9 9 10 8 6 7 8 9 13 18 19 12 3 2 6 6 3 -1 -2 2 4 4 6 6 4 3 3 8 12 9 5 4 1 -4 -2 10 15 11 7 6 7 7 6 5 7 8 8 10 8 5 5 5 6 9 12 14 15 13 10 4 -1 5 11 9 7 8 11 16 14 11
5 6 5 2 0 -2 2 5 1 2 0 -9 -4 6 5 9 28 38 30 17 12 12 10 13 13 7 3 4 5 4 4 8 6 0 1 4 3 7 8 5 6 4 0 1 5 12 17 17 15 17 14 10 12 16 15 13 12 11 13 14 12 13 14 12 10 8 5 5 4 5 9 7 4 10 11 3 -3 -2 4 8 3 -2 -0 3 11 18 16 12
4 7 7 6 4 1 3 4 -2 -3 0 -3 -4 1 -2 -11 -5 17 33 32 25 18 10 9 11 10 7 -0 -5 2 13 22 23 17 15 13 8 6 5 4 7 7 5 6 6 8 12 11 8 5 4 7 7 3 7 14 14 11 12 12 10 12 13 13 12 9 8 9 1 -2 5 5 4 9 7 -1 -0 6 7 3 -2 -3 3 10 17 14 8 10
7 8 10 9 8 5 6 7 2 -5 -8 -13 -16 -13 -9 -9 -12 -13 -9 -1 11 19 20 23 21 12 8 7 1 -1 -2 -3 -3 -1 2 8 10 9 8 9 9 8 9 9 7 7 6 2 -3 -4 2 8 6 9 17 18 14 10 7 7 9 9 6 4 7 9 8 6 1 4 11 10 9 11 4 -1 6 9 7 8 11 12 20 26 18 2 2 12
11 9 11 13 13 11 9 9 7 6 4 -3 -6 -8 -14 -13 -9 -15 -24 -21 -9 -7 -9 10 32 29 18 16 12 5 1 -4 -5 -1 5 16 24 22 19 20 19 15 12 8 7 8 5 1 3 12 17 12 8 13 11 1 -0 3 2 2 3 2 -0 1 6 8 7 7 13 17 13 8 11 8 -3 -2 9 11 11 16 17 16 24 26 9 -3 5 14
12 11 10 13 16 15 15 16 12 11 11 7 6 6 -1 -5 -9 -17 -17 -4 7 2 -20 -30 -14 5 18 27 22 11 5 3 6 10 4 -0 7 12 11 9 8 11 16 16 17 20 19 16 20 24 18 7 7 5 -5 -4 7 8 5 5 3 1 6 12 15 16 15 15 16 14 9 11 13 2 -5 5 14 11 11 12 9 12 20 17 6 2 8 8
13 14 10 11 16 16 14 17 17 15 14 12 10 9 8 10 3 -12 -15 -13 -10 3 6 -12 -27 -24 -11 1 7 15 18 10 6 9 0 -9 -7 1 5 2 -4 -1 6 15 23 23 18 15 15 11 3 4 6 -4 -2 17 14 -9 -12 0 4 3 5 10 14 18 21 21 18 16 15 13 7 1 5 13 9 3 4 4 5 13 19 14 9 9 7 6
Height
5911 5911 5911 5911 5911 5911 5911 5911 5910 5910 5910 5910 5911 5911 5911 5911 5911 5910 5910 5910 5910 5910 5910 5910 5909 5909 5908 5908 5907 5907 5906 5906 5905 5904 5903 5903 5902 5901 5900 5899 5898 5898 5897 5896 5895 5894 5893 5892 5891 5890 5889 5888 5887 5886 5885 5885 5884 5883 5882 5881 5881 5880 5878 5877 5876 5875 5873 5872 5871 5869 5868 5867 5866 5865 5864 5863 5862 5861 5860 5859 5859 5857 5857 5856 5856 5855 5855 5854
5909 5909 5909 5909 5910 5910 5910 5910 5909 5909 5909 5909 5909 5909 5909 5909 5909 5909 5909 5909 5909 5909 5908 5908 5908 5908 5907 5907 5906 5906 5905 5905 5904 5903 5903 5902 5901 5900 5899 5898 5898 5897 5896 5895 5895 5894 5893 5891 5890 5889 5888 5888 5887 5885 5884 5883 5882 5882 5881 5880 5879 5878 5877 5876 5875 5874 5873 5872 5870 5869 5867 5866 5865 5864 5863 5862 5860 5860 5859 5858 5857 5856 5855 5855 5854 5854 5853 5853
5906 5907 5907 5907 5907 5908 5908 5908 5908 5908 5908 5907 5907 5907 5907 5907 5907 5907 5907 5907 5907 5907 5907 5907 5906 5906 5906 5906 5905 5905 5904 5904 5903 5902 5902 5901 5900 5899 5898 5898 5897 5896 5895 5895 5894 5893 5892 5891 5890 5888 5887 5887 5886 5885 5884 5883 5881 5880 5880 5879 5878 5877 5875 5874 5873 5873 5871 5870 5869 5868 5867 5865 5864 5863 5862 5860 5859 5858 5857 5857 5856 5855 5854 5853 5853 5852 5852 5851
5904 5904 5904 5905 5905 5905 5905 5905 5905 5905 5905 5905 5905 5905 5905 5905 5905 5905 5905 5905 5905 5905 5905 5905 5905 5905 5904 5904 5904 5903 5903 5902 5902 5901 5900 5900 5899 5898 5898 5897 5896 5895 5894 5893 5893 5892 5891 5890 5889 5888 5887 5886 5885 5884 5883 5881 5880 5879 5878 5877 5876 5875 5874 5873 5872 5871 5870 5869 5868 5867 5866 5864 5863 5862 5861 5860 5858 5857 5856 5855 5854 5853 5852 5851 5851 5850 5849 5849
5901 5901 5902 5902 5902 5902 5903 5903 5903 5903 5903 5903 5903 5903 5903 5903 5903 5903 5903 5903 5903 5903 5903 5903 5903 5903 5902 5902 5902 5902 5901 5900 5900 5899 5899 5898 5898 5897 5896 5895 5895 5894 5893 5892 5891 5890 5889 5889 5888 5887 5886 5884 5883 5882 5881 5880 5879 5878 5877 5876 5875 5874 5873 5872 5871 5869 5868 5867 5866 5865 5864 5863 5862 5861 5860 5859 5857 5856 5854 5853 5852 5851 5850 5849 5848 5848 5847 5846
5898 5898 5899 5899 5899 5899 5900 5900 5900 5900 5900 5900 5900 5900 5900 5900 5900 5900 5900 5900 5900 5900 5900 5900 5900 5900 5900 5900 5900 5899 5899 5898 5898 5897 5897 5896 5896 5895 5895 5894 5893 5892 5891 5891 5890 5889 5888 5887 5886 5885 5884 5883 5882 5881 5880 5879 5878 5877 5875 5874 5873 5872 5871 5870 5869 5868 5867 5866 5865 5864 5863 5862 5861 5859 5858 5857 5856 5855 5853 5852 5851 5849 5848 5847 5846 5845 5844 5843
5895 5895 5896 5896 5896 5896 5897 5897 5897 5897 5897 5898 5898 5897 5897 5897 5897 5897 5897 5897 5897 5897 5897 5897 5897 5897 5897 5897 5897 5897 5896 5896 5895 5895 5894 5894 5894 5893 5893 5892 5891 5891 5890 5889 5888 5887 5886 5885 5884 5883 5883 5882 5881 5879 5878 5877 5876 5875 5874 5873 5872 5870 5870 5869 5868 5866 5865 5864 5863 5862 5861 5860 5859 5858 5856 5855 5854 5853 5852 5850 5849 5847 5846 5845 5844 5842 5841 5840
5891 5892 5892 5892 5893 5893 5893 5893 5894 5894 5894 5895 5895 5895 5895 5895 5894 5894 5894 5894 5894 5894 5894 5894 5894 5894 5894 5894 5894 5894 5893 5893 5893 5892 5892 5891 5891 5891 5890 5890 5889 5889 5888 5887 5886 5885 5884 5883 5882 5882 5881 5880 5879 5877 5876 5875 5874 5873 5872 5871 5870 5869 5868 5867 5866 5865 5864 5862 5861 5860 5859 5858 5857 5856 5854 5853 5852 5851 5850 5848 5847 5845 5844 5843 5841 5840 5839 5837
5888 5888 5889 5889 5889 5889 5890 5890 5890 5890 5891 5891 5891 5892 5892 5891 5892 5892 5891 5892 5891 5891 5891 5891 5891 5891 5891 5891 5891 5891 5890 5890 5890 5889 5889 5888 5888 5888 5888 5887 5887 5886 5886 5885 5884 5883 5883 5882 5881 5880 5879 5878 5877 5875 5874 5873 5872 5871 5870 5869 5868 5867 5866 5865 5863 5862 5861 5860 5860 5858 5857 5856 5855 5854 5852 5851 5850 5849 5847 5846 5845 5843 5842 5840 5839 5838 5836 5835
5884 5884 5885 5885 5885 5886 5886 5886 5886 5887 5887 5887 5888 5888 5888 5888 5888 5888 5888 5888 5888 5888 5888 5888 5888 5888 5888 5888 5888 5887 5887 5887 5886 5886 5886 5885 5885 5885 5885 5884 5884 5884 5883 5883 5882 5881 5880 5880 5879 5878 5877 5876 5875 5874 5872 5871 5870 5869 5868 5867 5866 5864 5863 5862 5861 5860 5859 5858 5858 5857 5855 5854 5853 5851 5850 5849 5848 5847 5845 5844 5843 5841 5840 5838 5837 5835 5834 5832
5880 5881 5881 5881 5882 5882 5882 5882 5883 5883 5883 5883 5884 5884 5885 5885 5885 5885 5885 5885 5885 5885 5885 5885 5884 5884 5884 5884 5884 5884 5884 5884 5883 5883 5883 5883 5882 5882 5882 5882 5881 5881 5880 5880 5879 5879 5878 5877 5876 5875 5875 5874 5873 5872 5870 5869 5868 5866 5865 5864 5863 5862 5861 5860 5858 5858 5856 5855 5855 5855 5854 5852 5849 5848 5848 5847 5846 5845 5844 5842 5840 5839 5837 5836 5835 5833 5832 5830
5877 5877 5877 5878 5878 5878 5878 5879 5879 5879 5879 5879 5879 5880 5881 5881 5881 5881 5881 5881 5881 5881 5881 5881 5880 5880 5880 5881 5881 5880 5880 5880 5880 5880 5880 5880 5879 5879 5879 5879 5878 5878 5878 5877 5877 5876 5875 5874 5874 5873 5872 5871 5870 5869 5868 5867 5866 5864 5863 5861 5860 5859 5858 5857 5856 5855 5854 5852 5851 5851 5853 5852 5847 5844 5844 5844 5844 5843 5842 5840 5838 5836 5835 5833 5832 5830 5829 5827
5873 5874 5874 5874 5874 5875 5875 5875 5875 5875 5875 5875 5876 5876 5876 5877 5877 5876 5877 5877 5877 5877 5877 5876 5877 5876 5877 5877 5877 5877 5877 5877 5876 5876 5876 5877 5876 5876 5876 5876 5875 5875 5874 5874 5873 5873 5872 5871 5871 5870 5869 5868 5867 5866 5865 5865 5863 5862 5860 5859 5857 5856 5855 5854 5852 5852 5851 5849 5848 5847 5850 5851 5847 5842 5841 5840 5840 5840 5839 5837 5835 5834 5832 5830 5829 5827 5825 5823
5869 5870 5870 5871 5871 5871 5871 5871 5871 5871 5871 5871 5871 5872 5872 5873 5873 5872 5873 5873 5873 5873 5872 5872 5872 5872 5872 5874 5873 5873 5873 5873 5873 5873 5873 5873 5873 5873 5873 5872 5872 5871 5871 5870 5870 5869 5869 5868 5867 5867 5866 5865 5864 5863 5862 5862 5861 5859 5857 5856 5855 5853 5852 5851 5849 5848 5847 5846 5844 5843 5845 5849 5847 5842 5839 5837 5836 5837 5836 5834 5832 5831 5829 5827 5825 5823 5822 5820
5865 5866 5866 5866 5867 5867 5867 5867 5867 5867 5867 5867 5867 5867 5868 5868 5869 5868 5868 5869 5868 5868 5868 5868 5868 5867 5868 5869 5869 5869 5869 5869 5869 5870 5870 5870 5870 5870 5870 5869 5868 5868 5867 5867 5866 5865 5865 5864 5864 5864 5863 5862 5861 5860 5859 5858 5857 5856 5854 5853 5853 5850 5849 5848 5846 5844 5843 5842 5841 5839 5839 5845 5846 5842 5838 5835 5834 5833 5833 5831 5829 5828 5826 5823 5821 5819 5818 5816
5860 5861 5862 5862 5863 5863 5863 5863 5863 5864 5864 5863 5863 5863 5863 5864 5864 5864 5864 5864 5864 5864 5864 5864 5864 5863 5864 5865 5865 5865 5865 5865 5865 5866 5866 5867 5866 5866 5866 5865 5864 5864 5863 5863 5862 5861 5861 5860 5860 5860 5860 5859 5858 5856 5855 5853 5854 5853 5851 5850 5850 5848 5846 5845 5843 5840 5838 5837 5837 5836 5834 5839 5841 5840 5837 5834 5831 5830 5829 5828 5826 5824 5822 5820 5817 5815 5814 5811
5856 5857 5858 5858 5858 5859 5859 5859 5859 5860 5860 5859 5859 5859 5858 5858 5859 5859 5859 5859 5859 5859 5859 5859 5860 5858 5859 5861 5861 5861 5860 5860 5861 5862 5862 5862 5862 5862 5861 5860 5860 5859 5859 5858 5858 5857 5856 5856 5856 5856 5856 5856 5855 5853 5849 5849 5851 5849 5847 5846 5846 5845 5843 5842 5839 5836 5833 5832 5832 5831 5830 5833 5835 5836 5835 5832 5829 5827 5826 5825 5823 5821 5819 5816 5813 5811 5810 5807
5852 5853 5853 5854 5854 5854 5854 5854 5855 5856 5856 5855 5854 5854 5853 5853 5854 5854 5854 5854 5854 5854 5854 5855 5855 5853 5855 5857 5857 5856 5856 5856 5857 5858 5858 5858 5857 5856 5856 5855 5855 5855 5854 5853 5853 5852 5851 5851 5852 5852 5853 5852 5850 5848 5845 5846 5847 5845 5843 5842 5842 5841 5840 5839 5836 5832 5829 5827 5828 5826 5824 5826 5829 5830 5831 5829 5825 5824 5824 5822 5820 5818 5816 5812 5810 5808 5806 5803
5848 5849 5849 5850 5849 5850 5850 5850 5850 5851 5852 5851 5850 5850 5849 5848 5848 5849 5850 5849 5849 5849 5849 5850 5849 5849 5850 5852 5851 5851 5851 5852 5853 5854 5854 5853 5852 5852 5851 5851 5850 5850 5849 5849 5848 5847 5847 5846 5847 5849 5849 5848 5845 5843 5842 5842 5842 5840 5839 5838 5837 5836 5836 5836 5832 5827 5825 5822 5823 5823 5818 5820 5823 5824 5826 5825 5822 5820 5820 5819 5816 5814 5812 5808 5806 5804 5802 5799
5844 5844 5845 5845 5845 5845 5845 5845 5845 5846 5847 5846 5846 5845 5844 5844 5843 5844 5844 5844 5844 5845 5844 5844 5844 5845 5846 5846 5846 5845 5847 5848 5848 5849 5849 5848 5847 5847 5846 5846 5846 5845 5845 5844 5842 5842 5842 5841 5843 5846 5844 5842 5840 5839 5839 5837 5836 5835 5834 5833 5832 5831 5832 5832 5827 5823 5821 5816 5817 5818 5813 5814 5817 5818 5820 5819 5816 5816 5815 5814 5813 5810 5807 5805 5802 5800 5797 5795
5839 5840 5840 5841 5841 5840 5840 5840 5841 5842 5842 5842 5841 5840 5839 5839 5839 5839 5839 5839 5839 5839 5839 5839 5838 5840 5842 5841 5841 5841 5842 5843 5844 5845 5844 5844 5843 5841 5841 5841 5841 5840 5841 5839 5837 5837 5836 5835 5839 5841 5838 5836 5836 5835 5834 5833 5831 5830 5829 5828 5827 5827 5826 5825 5822 5819 5817 5811 5811 5813 5807 5809 5812 5812 5815 5814 5810 5811 5811 5809 5807 5805 5803 5800 5798 5795 5793 5791
5834 5834 5835 5836 5835 5835 5835 5835 5836 5836 5837 5836 5836 5835 5834 5834 5833 5833 5833 5832 5834 5835 5833 5833 5834 5834 5836 5835 5836 5838 5838 5839 5840 5840 5840 5839 5838 5837 5836 5836 5836 5835 5835 5834 5832 5831 5829 5831 5835 5835 5832 5831 5830 5829 5829 5827 5826 5825 5823 5822 5822 5823 5820 5818 5817 5815 5812 5807 5806 5806 5801 5803 5807 5807 5810 5811 5806 5804 5805 5805 5803 5800 5799 5796 5793 5792 5789 5787
5828 5829 5830 5830 5830 5830 5830 5830 5830 5831 5831 5831 5831 5830 5830 5829 5828 5828 5826 5824 5827 5830 5828 5828 5828 5828 5830 5830 5832 5834 5834 5836 5836 5836 5836 5834 5833 5832 5830 5831 5831 5829 5830 5829 5828 5824 5823 5827 5830 5829 5827 5826 5825 5824 5823 5822 5820 5819 5818 5817 5816 5817 5814 5810 5811 5810 5807 5803 5800 5799 5793 5795 5801 5801 5805 5808 5804 5800 5796 5797 5800 5796 5794 5792 5789 5788 5785 5782
5823 5824 5824 5825 5825 5824 5824 5825 5825 5825 5825 5826 5825 5825 5825 5824 5823 5822 5820 5816 5815 5822 5825 5823 5822 5821 5823 5825 5827 5829 5830 5832 5832 5832 5833 5830 5829 5827 5826 5826 5825 5824 5825 5825 5822 5818 5819 5823 5823 5823 5822 5821 5819 5819 5819 5817 5815 5813 5813 5813 5812 5811 5808 5805 5804 5803 5801 5799 5796 5792 5785 5786 5792 5794 5799 5803 5802 5800 5792 5788 5793 5792 5788 5786 5785 5783 5781 5778
5817 5818 5819 5820 5820 5819 5819 5819 5819 5820 5819 5819 5819 5819 5819 5819 5819 5817 5815 5809 5803 5811 5819 5817 5816 5816 5817 5819 5821 5824 5825 5826 5828 5828 5828 5826 5824 5823 5821 5821 5819 5819 5821 5819 5815 5813 5816 5819 5817 5817 5817 5815 5814 5814 5814 5812 5808 5806 5807 5809 5807 5804 5802 5800 5798 5796 5794 5793 5792 5788 5779 5776 5779 5783 5791 5795 5795 5797 5793 5785 5783 5782 5781 5780 5779 5778 5777 5775
5811 5812 5813 5814 5814 5813 5813 5813 5814 5814 5813 5814 5814 5814 5813 5813 5813 5812 5811 5803 5794 5799 5808 5808 5810 5812 5813 5816 5817 5819 5819 5820 5823 5823 5821 5821 5819 5818 5816 5816 5815 5815 5815 5813 5809 5807 5811 5814 5812 5811 5811 5810 5809 5809 5810 5808 5802 5800 5802 5804 5801 5798 5797 5795 5793 5791 5787 5786 5785 5784 5780 5769 5765 5771 5781 5787 5785 5787 5790 5787 5779 5774 5773 5775 5774 5773 5772 5770
5805 5806 5807 5808 5808 5808 5807 5808 5809 5809 5808 5809 5808 5808 5808 5808 5808 5807 5806 5797 5785 5788 5795 5797 5802 5806 5809 5813 5814 5814 5814 5815 5818 5816 5815 5815 5813 5812 5811 5811 5811 5809 5809 5806 5803 5803 5807 5808 5807 5806 5805 5803 5804 5805 5805 5802 5797 5794 5797 5798 5796 5794 5792 5789 5788 5785 5782 5780 5775 5778 5782 5766 5751 5760 5773 5777 5778 5779 5782 5784 5779 5770 5765 5768 5769 5767 5766 5765
5800 5801 5801 5801 5802 5802 5802 5802 5802 5803 5803 5803 5803 5803 5802 5803 5803 5802 5800 5790 5777 5778 5784 5789 5794 5797 5802 5807 5810 5811 5811 5811 5811 5809 5810 5809 5807 5807 5805 5806 5805 5803 5803 5800 5797 5799 5801 5801 5802 5801 5799 5799 5800 5799 5798 5796 5792 5790 5790 5790 5790 5789 5787 5784 5782 5779 5777 5773 5767 5773 5782 5764 5743 5750 5763 5766 5771 5775 5776 5777 5776 5770 5761 5761 5763 5761 5760 5759
5794 5794 5795 5796 5795 5796 5796 5796 5796 5796 5796 5797 5797 5796 5797 5797 5796 5796 5793 5781 5770 5771 5777 5784 5788 5790 5794 5798 5803 5806 5806 5806 5805 5803 5804 5803 5802 5801 5800 5800 5799 5797 5797 5795 5793 5795 5795 5795 5795 5794 5794 5795 5794 5793 5792 5790 5787 5786 5785 5784 5784 5782 5780 5778 5775 5774 5772 5766 5762 5770 5776 5763 5742 5739 5750 5759 5764 5767 5769 5769 5769 5767 5760 5756 5756 5755 5754 5752
5787 5788 5789 5789 5789 5789 5789 5790 5789 5789 5790 5790 5789 5790 5791 5790 5790 5789 5781 5769 5767 5771 5774 5778 5783 5786 5787 5790 5794 5797 5798 5798 5798 5797 5797 5796 5796 5795 5794 5793 5792 5791 5790 5788 5788 5790 5790 5789 5789 5789 5790 5789 5788 5787 5786 5784 5782 5781 5780 5778 5777 5775 5773 5772 5769 5769 5767 5759 5760 5766 5767 5761 5743 5732 5741 5753 5757 5760 5762 5761 5761 5760 5757 5752 5750 5748 5747 5745
5781 5781 5782 5783 5783 5782 5782 5783 5782 5782 5783 5782 5783 5783 5783 5783 5783 5778 5766 5762 5768 5772 5772 5773 5776 5781 5783 5783 5784 5786 5788 5790 5791 5791 5790 5789 5789 5788 5787 5787 5786 5784 5783 5782 5784 5785 5784 5783 5783 5783 5783 5783 5783 5782 5780 5779 5777 5776 5775 5773 5772 5768 5766 5764 5763 5764 5761 5754 5756 5758 5758 5754 5740 5732 5741 5748 5750 5754 5756 5753 5753 5753 5751 5747 5744 5742 5742 5739
5773 5774 5775 5776 5776 5775 5775 5775 5775 5776 5776 5775 5776 5776 5776 5776 5771 5763 5759 5763 5766 5766 5770 5772 5772 5774 5775 5775 5776 5777 5778 5780 5782 5783 5783 5782 5781 5781 5781 5780 5779 5777 5776 5777 5778 5778 5777 5777 5777 5777 5778 5778 5777 5776 5774 5773 5773 5771 5769 5768 5766 5762 5759 5758 5758 5758 5754 5749 5750 5750 5747 5741 5732 5733 5742 5743 5743 5749 5749 5746 5746 5747 5745 5742 5738 5736 5735 5732
5766 5767 5768 5769 5769 5767 5767 5768 5769 5769 5768 5769 5768 5768 5770 5766 5757 5755 5759 5763 5762 5761 5765 5767 5765 5767 5767 5768 5769 5769 5769 5770 5772 5773 5774 5775 5774 5774 5774 5772 5772 5771 5770 5771 5771 5769 5769 5770 5771 5771 5772 5772 5770 5770 5769 5767 5766 5764 5763 5763 5760 5756 5754 5753 5753 5750 5744 5744 5744 5742 5737 5730 5727 5732 5737 5735 5737 5744 5744 5740 5739 5740 5739 5736 5733 5730 5728 5725
5758 5759 5760 5761 5762 5760 5759 5760 5761 5760 5760 5760 5759 5761 5762 5753 5748 5753 5758 5759 5759 5759 5760 5759 5758 5759 5759 5759 5760 5762 5762 5762 5763 5763 5765 5766 5765 5766 5767 5766 5766 5765 5765 5764 5762 5762 5761 5762 5765 5765 5765 5765 5764 5763 5762 5760 5759 5757 5757 5756 5752 5752 5751 5749 5748 5741 5737 5738 5736 5732 5728 5724 5724 5727 5727 5725 5729 5737 5740 5735 5732 5733 5732 5730 5727 5724 5721 5719
5749 5750 5752 5753 5754 5753 5751 5751 5752 5751 5750 5750 5750 5751 5749 5745 5746 5751 5752 5753 5754 5754 5753 5753 5753 5752 5752 5751 5752 5755 5756 5755 5755 5755 5754 5755 5756 5757 5758 5759 5760 5760 5759 5757 5756 5756 5754 5754 5758 5757 5756 5758 5757 5756 5755 5752 5750 5749 5749 5747 5744 5748 5747 5742 5740 5736 5733 5731 5726 5722 5720 5720 5722 5721 5718 5718 5722 5730 5733 5729 5726 5727 5724 5722 5720 5717 5714 5712
5740 5741 5743 5745 5748 5746 5742 5743 5744 5742 5741 5741 5739 5739 5740 5741 5745 5746 5745 5745 5745 5746 5746 5746 5747 5746 5745 5745 5745 5748 5748 5747 5748 5747 5746 5747 5748 5749 5750 5752 5754 5754 5753 5751 5749 5749 5746 5745 5750 5748 5747 5750 5749 5749 5748 5745 5743 5742 5741 5740 5740 5742 5739 5734 5732 5732 5729 5724 5719 5716 5712 5713 5717 5712 5709 5715 5719 5723 5726 5722 5720 5720 5717 5714 5711 5708 5707 5704
5731 5732 5733 5737 5741 5738 5733 5733 5735 5732 5730 5729 5726 5730 5735 5737 5738 5738 5737 5737 5737 5738 5738 5738 5739 5739 5738 5738 5739 5740 5740 5740 5740 5739 5739 5739 5739 5741 5742 5744 5745 5745 5746 5745 5742 5742 5739 5738 5742 5741 5739 5740 5740 5740 5739 5736 5734 5733 5734 5737 5736 5733 5730 5728 5726 5724 5723 5717 5714 5714 5709 5706 5706 5702 5703 5711 5713 5715 5717 5716 5713 5711 5708 5705 5703 5701 5700 5697
5722 5721 5723 5729 5732 5731 5727 5723 5724 5722 5719 5716 5717 5723 5729 5729 5731 5731 5729 5730 5732 5732 5730 5729 5729 5730 5730 5731 5731 5732 5732 5732 5733 5732 5732 5731 5730 5733 5736 5736 5737 5738 5740 5737 5733 5734 5733 5729 5732 5734 5730 5731 5732 5731 5729 5727 5727 5727 5728 5729 5728 5723 5721 5721 5719 5716 5715 5710 5706 5709 5708 5700 5695 5697 5703 5707 5708 5708 5709 5708 5705 5701 5698 5696 5695 5694 5693 5690
5713 5709 5711 5721 5724 5721 5718 5713 5713 5712 5706 5705 5710 5717 5722 5723 5723 5723 5723 5725 5726 5724 5721 5720 5720 5720 5721 5722 5723 5724 5724 5724 5725 5725 5724 5723 5722 5724 5728 5728 5729 5731 5733 5729 5725 5726 5725 5720 5721 5725 5723 5723 5723 5721 5720 5721 5722 5721 5719 5718 5716 5714 5713 5712 5711 5710 5708 5703 5700 5702 5701 5690 5685 5694 5703 5705 5705 5704 5703 5702 5698 5694 5690 5688 5687 5687 5685 5682
5705 5698 5700 5712 5713 5709 5708 5703 5701 5699 5694 5698 5706 5711 5714 5714 5714 5716 5716 5716 5716 5713 5712 5712 5712 5711 5712 5713 5714 5715 5716 5715 5717 5716 5715 5715 5715 5716 5719 5720 5721 5724 5723 5720 5717 5716 5715 5710 5710 5715 5714 5713 5714 5715 5715 5716 5715 5711 5709 5708 5706 5705 5703 5701 5701 5702 5699 5696 5694 5693 5690 5681 5679 5691 5701 5702 5700 5698 5697 5696 5693 5689 5685 5682 5681 5680 5678 5674
5696 5688 5690 5702 5701 5698 5698 5689 5686 5688 5685 5690 5699 5702 5703 5704 5707 5709 5708 5705 5705 5704 5704 5704 5704 5704 5705 5705 5705 5708 5707 5705 5707 5706 5704 5707 5708 5708 5712 5713 5714 5715 5713 5709 5708 5707 5704 5700 5700 5702 5703 5704 5707 5709 5708 5706 5704 5701 5699 5699 5698 5697 5696 5691 5690 5693 5692 5688 5687 5684 5677 5672 5676 5689 5696 5696 5693 5691 5690 5689 5687 5684 5679 5675 5674 5673 5670 5666
5685 5679 5683 5690 5688 5689 5687 5676 5676 5680 5676 5681 5690 5692 5692 5695 5699 5700 5698 5696 5695 5695 5696 5696 5697 5698 5698 5698 5698 5699 5698 5696 5697 5696 5694 5697 5700 5702 5706 5706 5705 5705 5703 5699 5698 5699 5695 5689 5687 5689 5692 5696 5699 5700 5699 5696 5694 5691 5689 5691 5692 5690 5689 5684 5681 5685 5684 5679 5677 5673 5665 5664 5675 5689 5692 5689 5686 5684 5683 5682 5680 5678 5673 5669 5667 5664 5661 5657
5674 5672 5675 5677 5676 5680 5676 5665 5665 5668 5667 5674 5680 5680 5681 5684 5687 5690 5690 5687 5686 5687 5688 5688 5690 5690 5690 5691 5690 5689 5689 5687 5686 5686 5685 5687 5692 5696 5698 5697 5695 5694 5693 5690 5690 5691 5685 5677 5676 5676 5679 5685 5690 5691 5690 5686 5683 5682 5683 5687 5685 5682 5682 5677 5673 5674 5671 5668 5667 5660 5651 5656 5672 5685 5686 5682 5679 5678 5677 5676 5674 5670 5667 5664 5660 5656 5653 5650
5666 5664 5663 5663 5664 5665 5662 5656 5656 5658 5660 5666 5667 5667 5670 5671 5674 5680 5681 5678 5677 5678 5677 5679 5681 5680 5681 5682 5681 5681 5681 5677 5675 5678 5678 5679 5685 5689 5689 5687 5686 5685 5684 5683 5683 5682 5675 5668 5666 5665 5666 5673 5679 5680 5680 5679 5677 5676 5678 5679 5677 5675 5674 5668 5665 5663 5657 5657 5660 5648 5639 5650 5668 5677 5677 5674 5671 5671 5672 5671 5666 5662 5658 5656 5652 5649 5647 5644
5656 5653 5650 5652 5650 5647 5647 5650 5649 5647 5650 5655 5654 5656 5659 5657 5662 5670 5670 5667 5669 5669 5667 5668 5670 5670 5672 5674 5672 5672 5672 5668 5667 5670 5671 5673 5677 5680 5679 5677 5677 5677 5676 5675 5672 5669 5665 5660 5658 5657 5655 5660 5666 5670 5673 5672 5669 5668 5670 5671 5668 5667 5665 5659 5658 5653 5643 5645 5650 5640 5632 5643 5660 5667 5667 5665 5663 5663 5666 5663 5657 5654 5651 5647 5644 5641 5639 5636
5642 5639 5637 5640 5636 5630 5634 5643 5641 5636 5640 5645 5643 5644 5647 5646 5651 5658 5657 5656 5660 5661 5657 5656 5659 5661 5662 5664 5663 5662 5664 5663 5661 5660 5664 5668 5668 5668 5668 5666 5668 5668 5666 5665 5663 5658 5653 5650 5650 5649 5646 5647 5653 5661 5665 5661 5656 5657 5660 5661 5659 5658 5657 5653 5648 5642 5637 5635 5635 5637 5636 5635 5646 5657 5658 5658 5658 5656 5656 5653 5647 5646 5643 5639 5637 5634 5631 5629
5626 5624 5625 5630 5626 5617 5619 5630 5633 5629 5631 5633 5629 5631 5636 5637 5640 5643 5643 5645 5649 5649 5646 5645 5648 5650 5652 5654 5654 5654 5656 5656 5652 5652 5657 5661 5660 5657 5656 5655 5657 5658 5656 5655 5653 5648 5641 5638 5639 5639 5637 5637 5643 5651 5655 5650 5644 5646 5649 5649 5650 5650 5648 5644 5636 5634 5635 5626 5620 5634 5639 5628 5631 5646 5650 5650 5653 5649 5645 5643 5639 5637 5635 5630 5628 5626 5624 5622
5613 5611 5614 5620 5616 5606 5606 5617 5624 5622 5619 5618 5615 5618 5624 5625 5627 5630 5632 5634 5635 5636 5634 5634 5637 5641 5644 5648 5646 5645 5647 5646 5643 5646 5650 5652 5651 5646 5644 5645 5645 5646 5646 5644 5642 5639 5630 5626 5630 5631 5628 5630 5634 5638 5643 5639 5632 5635 5637 5637 5641 5642 5639 5634 5628 5627 5629 5618 5612 5627 5631 5620 5622 5635 5640 5643 5644 5639 5635 5634 5632 5628 5625 5621 5618 5616 5616 5613
5602 5600 5601 5605 5602 5597 5598 5606 5612 5609 5606 5606 5603 5603 5611 5615 5617 5623 5625 5622 5621 5625 5625 5623 5628 5634 5636 5638 5637 5634 5635 5635 5635 5637 5640 5639 5638 5635 5634 5635 5634 5634 5634 5631 5630 5628 5620 5616 5624 5625 5618 5619 5624 5628 5632 5628 5621 5623 5626 5627 5632 5634 5631 5625 5621 5622 5622 5611 5608 5615 5614 5611 5620 5628 5630 5632 5631 5628 5626 5625 5623 5620 5616 5611 5606 5606 5607 5605
5591 5590 5590 5589 5585 5587 5589 5592 5596 5594 5593 5596 5591 5591 5600 5604 5607 5615 5616 5611 5612 5616 5616 5614 5620 5625 5624 5625 5623 5619 5622 5627 5626 5627 5629 5627 5624 5624 5622 5622 5623 5622 5620 5619 5619 5616 5610 5608 5616 5616 5606 5604 5614 5621 5620 5616 5611 5611 5614 5618 5624 5626 5623 5618 5616 5619 5615 5605 5603 5604 5598 5601 5617 5624 5620 5619 5618 5616 5615 5614 5613 5612 5609 5602 5595 5597 5599 5597
5579 5578 5580 5575 5569 5573 5576 5577 5581 5580 5579 5582 5582 5585 5590 5592 5599 5606 5603 5598 5600 5603 5606 5609 5613 5615 5613 5609 5607 5608 5616 5621 5616 5617 5619 5614 5610 5610 5609 5610 5612 5610 5608 5610 5609 5605 5603 5601 5607 5606 5592 5590 5607 5613 5607 5604 5599 5594 5600 5612 5619 5618 5614 5612 5612 5612 5606 5598 5595 5593 5588 5594 5609 5614 5610 5609 5608 5604 5602 5603 5604 5603 5600 5592 5588 5591 5592 5588
5567 5565 5567 5563 5556 5559 5564 5566 5566 5563 5563 5570 5576 5580 5579 5581 5591 5594 5585 5582 5589 5594 5599 5601 5601 5601 5598 5595 5599 5607 5612 5609 5604 5604 5605 5600 5596 5597 5598 5599 5601 5600 5600 5601 5599 5597 5596 5594 5596 5595 5581 5581 5598 5601 5594 5589 5579 5575 5593 5610 5611 5609 5606 5604 5604 5602 5598 5592 5587 5584 5585 5591 5598 5600 5600 5599 5597 5593 5591 5593 5595 5593 5588 5582 5582 5584 5583 5580